Location: Unspecified
(48.1170°N, 0.0000°E)
Time: 02:31:25
(UTC+00:00)

AO-7 - Visible Passes

Search period start: 21 August 2019 00:00
Search period end: 31 August 2019 00:00
Orbit: 1440 x 1458 km, 101.7° (Epoch: 20 August)

Date Brightness Start Highest point End Pass type
(mag) Time Alt. Az. Time Alt. Az. Time Alt. Az.
21 Aug ? 01:56:36 10° NE 02:01:22 16° E 02:06:06 10° ESE visible
21 Aug ? 03:47:15 10° NNE 03:55:38 72° ESE 04:03:55 10° S visible
22 Aug ? 02:47:48 10° NNE 02:55:14 34° E 03:02:35 10° SSE visible
23 Aug ? 01:50:06 10° NE 01:54:12 14° E 01:58:16 10° ESE visible
23 Aug ? 03:40:16 10° NNE 03:48:36 66° ESE 03:56:51 10° S visible
24 Aug ? 02:40:55 10° NE 02:48:08 31° E 02:55:16 10° SSE visible
25 Aug ? 01:43:46 10° ENE 01:47:01 12° E 01:50:14 10° ESE visible
25 Aug ? 03:33:17 10° NNE 03:41:34 61° ESE 03:49:45 10° S visible
26 Aug ? 02:34:04 10° NE 02:41:02 28° E 02:47:55 10° SSE visible
26 Aug ? 04:26:12 10° NNE 04:34:33 76° WNW 04:42:49 10° SSW visible
27 Aug ? 01:37:53 10° ENE 01:39:49 11° E 01:41:45 10° E visible
27 Aug ? 03:26:19 10° NNE 03:34:31 56° ESE 03:42:38 10° S visible
28 Aug ? 02:27:14 10° NE 02:33:54 26° E 02:40:30 10° SE visible
28 Aug ? 04:19:10 10° NNE 04:27:33 81° WNW 04:35:52 10° SSW visible
29 Aug ? 03:19:22 10° NNE 03:27:28 51° ESE 03:35:29 10° S visible
30 Aug ? 02:20:26 10° NE 02:26:47 23° E 02:33:04 10° SE visible
30 Aug ? 04:12:09 10° NNE 04:20:34 87° WNW 04:28:53 10° SSW visible
